Погода в Навесном

Россия / Орловская область     52°17′02″N   37°56′59″E
темп.,
°C
ветер,
м/с
пор.,
м/с
влажн.,
%
обл.,
%
осадки,
мм/ч
давл.,
гПа
погр.,
м
13 апреля, вт
вт1300:00+12юв5136795 0.0 1024250
03:00+10вюв41272100 0.0 1024199
06:00+9юв41269100 0.0 1025211
09:00+14юв6115486 0.0 1025402
12:00+19юв711359 0.0 10231299
15:00+21юв812295 0.0 10222035
18:00+18юв594378 0.0 1021440
21:00+14юв4116151 0.0 1022260
14 апреля, ср
ср1400:00+12юв3579100 0.0 1022101
03:00+10ююв3489100 0.0 102260
06:00+10юв22917 0.0 102016
09:00+14юв465160 0.0 1020413
12:00+17юв583299 0.0 10181095
15:00+19юв573099 0.0 10172208
18:00+15ю5843100 0.0 1017347
21:00+13ююв3350100 0.0 101737
15 апреля, чт
чт1500:00+12в1150100 0.0 101611
03:00+11з1154100 0.0 101611
06:00+10всв2366100 0.2 101646
09:00+13в586524 0.3 1015470
12:00+18ююв474181 0.0 10142246
15:00+16вюв235499 0.0 1013159
18:00+14всв456597 0.2 1013170
21:00+12в237427 0.3 101446
16 апреля, пт
пт1600:00+11ю2269100 0.0 101430
03:00+10з2278100 0.0 101415
06:00+9юз488877 0.1 1015263
09:00+12ююв357379 0.3 1015394
12:00+15ююв5758100 0.1 10151423
15:00+17ююв5741100 0.3 10152252
18:00+15ююз465096 0.0 1015752
21:00+11зюз376994 0.0 1017225
17 апреля, сб
сб1700:00+10з3568100 0.0 1018171
03:00+9зсз2272100 0.0 101844
06:00+9сз3681100 0.3 1017211
09:00+11с4681100 0.7 1016406
12:00+16в6957100 0.1 10161228
15:00+15юв81163100 1.6 10171376
18:00+10ююз5678100 0.1 1019477
21:00+8ююз118480 0.1 1021134